Regional Weather Roundup
Issued by NWS

Home | Current Version | Previous Version | Graphics & Text | Print | Product List | Glossary On
Versions: 1 2 3 4 5 6 7 8 9 10 11 12 13 14 15 16 17 18 19 20 21 22 23 24 25 26 27 28 29 30 31 32 33 34 35 36 37 38 39 40 41 42 43 44 45 46 47 48 49
000
ASUS45 KTFX 280810
RWRMT
MONTANA REGIONAL WEATHER ROUNDUP
NATIONAL WEATHER SERVICE GREAT FALLS MT
200 AM MDT TUE JUL 28 2015

NOTE: "FAIR" INDICATES FEW OR NO CLOUDS BELOW 12000 FEET WITH NO
SIGNIFICANT WEATHER AND/OR OBSTRUCTIONS TO VISIBILITY.

MTZ001>007-043-280900-
WEST OF THE DIVIDE

CITY           SKY/WX    TMP DP  RH WIND       PRES   REMARKS
KALISPELL      CLOUDY    53  47  79 S6        30.12R
MISSOULA       CLOUDY    50  48  93 SE3       30.19S
BUTTE          MOCLDY    43  37  79 CALM      30.20S
MULLAN PASS    MOCLDY    40  38  93 SW7       30.21F
DEER LODGE       N/A     48  43  81 NE5       30.21R
EUREKA           N/A     46  45  93 CALM      30.13R
HAMILTON         N/A     52  41  66 S5        30.20R
LIBBY            N/A     45  43  93 CALM      30.15R
PLAINS           N/A     52  45  77 CALM      30.15S
RONAN            N/A     51  48  89 CALM      30.18S
$$

MTZ008-052>055-280900-
SOUTHWEST MONTANA

CITY           SKY/WX    TMP DP  RH WIND       PRES   REMARKS
BOZEMAN        CLOUDY    48  43  82 NE3       30.16S
DILLON         CLEAR     41  37  86 SW10      30.21S
W YELLOWSTONE  CLEAR     39  36  87 SW8       30.23S
TWIN BRIDGES     N/A     46  37  70 SE6       30.17S
$$

MTZ009-010-012-014-046-048-049-054-280900-
EAST SLOPES AND CENTRAL MONTANA

CITY           SKY/WX    TMP DP  RH WIND       PRES   REMARKS
CUT BANK       CLOUDY    51  44  77 W14       30.01F
GREAT FALLS    LGT RAIN  51  47  86 W10       30.02F
MALMSTROM AFB  LGT RAIN  51  49  92 SW10      30.03F
HELENA         CLOUDY    54  40  59 W20G26    30.11R
CONRAD           N/A     53  50  90 W13       30.03F
$$

MTZ011-013-016-021-045-047-050-051-280900-
NORTH CENTRAL MONTANA

CITY           SKY/WX    TMP DP  RH WIND       PRES   REMARKS
HAVRE          HVY RAIN  55  53  93 W23G29    29.84F FOG
LEWISTOWN      LGT RAIN  50  46  86 W10       29.98S
CHINOOK          N/A     55  55 100 W20G28    29.79S
FORT BENTON      N/A     54  50  87 SW13G20   29.97S
$$

MTZ017>020-022>027-061-062-280900-
NORTHEAST MONTANA

CITY           SKY/WX    TMP DP  RH WIND       PRES   REMARKS
GLASGOW        LGT RAIN  57  54  89 W23G32    29.66S FOG
SIDNEY         CLOUDY    63  55  77 SW15      29.65S
WOLF POINT     CLOUDY    61  55  81 W20G33    29.63F
PLENTYWOOD       N/A     61  59  94 SW10G22   29.53R
POPLAR           N/A     59  57  94 SW16G26   29.62F
$$

MTZ028>42-056>058-280900-
SOUTHCENTRAL AND SOUTHEAST MONTANA

CITY           SKY/WX    TMP DP  RH WIND       PRES   REMARKS
BAKER          CLOUDY    56  53  90 W20G28    29.80S
BILLINGS       PTCLDY    54  41  61 W29G39    29.98F
LIVINGSTON     CLOUDY    52  38  58 SW24G35   30.10S
MILES CITY     CLOUDY    56  51  84 W17G26    29.84S
EKALAKA          N/A     52  47  83 W15       29.86R
FORSYTH          N/A     57  48  72 SW20      29.85F
LAUREL           N/A     56  38  50 W22       29.98S
ROUNDUP          N/A     53  43  69 W18       29.86S
$$

REGIONAL REPORTS...DAKOTAS

CITY           SKY/WX    TMP DP  RH WIND       PRES   REMARKS
WILLISTON      CLOUDY    64  60  87 SW22G29   29.59S
MINOT          MOCLDY    72  58  61 S12G21    29.53R
DICKINSON      PTCLDY    59  55  87 W24G32    29.68S
BEACH          CLOUDY    55  55 100 W18G28    29.76S
CROSBY         CLOUDY    63  63 100 S20G26    29.49R
BISMARCK       CLOUDY    70  60  70 SW3       29.63R
GRAND FORKS    MOCLDY    73  71  93 SE15      29.63F
FARGO          CLOUDY    77  70  79 SE13G24   29.65F
BUFFALO SD       N/A     57  50  77 W22       29.77S
RAPID CITY     CLEAR     59  51  75 NW15      29.87R
$$

REGIONAL REPORTS...WYOMING/IDAHO/WASHINGTON

CITY           SKY/WX    TMP DP  RH WIND       PRES   REMARKS
GILLETTE       CLEAR     49  45  86 W10       30.00R
SHERIDAN       CLEAR     49  44  83 N10       29.98F
BUFFALO WY     CLEAR     47  44  90 SW7       30.02R
CODY           CLEAR     54  30  40 W9        30.07S
YELLOWSTONE LA   N/A     33  32  96 CALM      30.27S
IDAHO FALLS    PTCLDY    42  40  92 N8        30.23R
SALMON         CLOUDY    48  43  81 SW5       30.25S
BOISE          CLEAR     58  36  43 W5        30.19R
SPOKANE        PTCLDY    59  40  49 S3        30.12R
$$

REGIONAL REPORTS...ALBERTA

CITY           SKY/WX    TMP DP  RH WIND       PRES   REMARKS
EDMONTON       PTCLDY    54  45  71 W6        29.93R
CALGARY        CLEAR     54  39  58 NW8       30.02S
LETHBRIDGE     CLOUDY    55  45  67 W20G25    30.00S
MEDICINE HAT   CLOUDY    57  54  88 NW15      29.86S
WATERTON GATE    N/A     48  43  81 SW12G18     N/A
CARDSTON         N/A     54  41  62 W8          N/A
MILK RIVER       N/A     54  46  76 NW17G23     N/A
ONEFOUR          N/A     54  54 100 NW24G35     N/A
$$

REGIONAL REPORTS...SASKATCHEWAN

CITY           SKY/WX    TMP DP  RH WIND       PRES   REMARKS
SWIFT CURRENT  RAIN      55 N/A N/A N22G31    29.64F
REGINA         CLOUDY    63  61  94 NE20G30   29.44F
SASKATOON      LGT RAIN  59  57  94 NE16      29.74F
CYPRESS HILLS    N/A     52  50  93 N13G24      N/A
VAL MARIE        N/A     57  55  94 N14         N/A
ROCKGLEN         N/A     55  55 100 NW13        N/A
ASSINIBOIA       N/A     48  45  87 NW5         N/A
$$


USA.gov is the U.S. government's official web portal to all federal, state and local government web resources and services.